FW3814 Weather Reports


Display with metric or nautical units.
time (UTC)temp
F
wind
direction
speed
MPH
gust
MPH
rain 1hr
in
rain 24hr
in
rain mn
in
humidity
%
barometer
mb
20260507062504 51 13 6.0 11.0 0.00 0.56 0.04 90 1011.1
20260507062004 51 13 7.0 11.0 0.00 0.56 0.04 90 1011.0
20260507061504 51 12 7.0 9.0 0.00 0.56 0.04 90 1011.0
20260507061004 51 19 6.0 9.0 0.00 0.56 0.04 90 1011.1
20260507060525 51 18 6.0 8.0 0.00 0.56 0.04 90 1010.9
20260507060025 51 16 6.0 8.0 0.00 0.56 0.04 90 1010.9
20260507055504 51 16 5.0 8.0 0.00 0.56 0.04 90 1010.8
20260507055004 51 13 4.0 5.0 0.00 0.56 0.04 90 1011.0
20260507054504 50 7 5.0 8.0 0.00 0.56 0.04 90 1010.8
20260507054025 51 13 6.0 8.0 0.00 0.56 0.04 90 1010.8
20260507053504 51 29 6.0 8.0 0.00 0.56 0.04 90 1010.7
20260507053025 51 23 6.0 8.0 0.00 0.56 0.04 91 1010.6
20260507052504 51 20 7.0 10.0 0.00 0.57 0.04 91 1010.5
20260507052004 50 21 7.0 10.0 0.00 0.57 0.04 91 1010.6
20260507051504 50 21 7.0 10.0 0.00 0.57 0.04 91 1010.4
20260507051004 50 48 7.0 10.0 0.00 0.57 0.04 91 1010.3
20260507050504 50 64 7.0 8.0 0.00 0.57 0.04 91 1010.2
20260507050005 50 41 7.0 8.0 0.00 0.57 0.04 91 1010.3
20260507045504 49 17 6.0 8.0 0.00 0.57 0.04 91 1010.4
20260507045025 49 13 5.0 6.0 0.00 0.57 0.04 91 1010.2
20260507044504 49 18 5.0 7.0 0.00 0.57 0.04 91 1010.2
20260507044004 49 36 6.0 9.0 0.00 0.57 0.04 91 1010.0
20260507043504 49 35 7.0 9.0 0.00 0.57 0.04 91 1010.0
20260507043004 49 17 5.0 7.0 0.00 0.57 0.04 91 1009.9
20260507042504 49 8 6.0 7.0 0.00 0.57 0.04 91 1009.9
20260507042025 49 12 5.0 7.0 0.00 0.57 0.04 91 1009.7
20260507041525 50 22 5.0 7.0 0.00 0.57 0.04 91 1009.9
20260507041004 50 12 5.0 7.0 0.00 0.57 0.04 91 1009.7
20260507040504 50 7 5.0 7.0 0.00 0.57 0.04 91 1009.6
20260507040004 50 15 6.0 8.0 0.00 0.57 0.04 91 1009.7
20260507035504 50 18 6.0 8.0 0.00 0.57 0.04 91 1009.9
20260507035004 50 14 7.0 9.0 0.00 0.57 0.04 91 1009.9
20260507034505 50 13 7.0 12.0 0.00 0.57 0.04 91 1009.6
20260507034025 50 16 7.0 12.0 0.00 0.57 0.04 91 1009.7
20260507033525 50 16 8.0 12.0 0.00 0.57 0.04 91 1009.7
20260507033004 50 23 8.0 10.0 0.00 0.58 0.04 91 1009.7
20260507032525 50 37 9.0 9.0 0.00 0.58 0.04 91 1009.7
20260507032004 50 45 9.0 10.0 0.00 0.58 0.04 91 1009.7
20260507031504 50 48 9.0 11.0 0.00 0.58 0.04 91 1009.7
20260507031004 50 49 8.0 11.0 0.00 0.59 0.04 91 1009.7
20260507030504 50 47 7.0 11.0 0.01 0.69 0.04 91 1009.6
20260507030004 50 57 8.0 11.0 0.01 0.69 0.04 91 1009.7
20260507025504 50 47 8.0 11.0 0.01 0.69 0.04 91 1009.7
20260507025004 50 41 8.0 10.0 0.01 0.70 0.04 91 1009.7
20260507024504 50 58 8.0 12.0 0.01 0.73 0.04 91 1009.7
20260507024025 50 49 9.0 12.0 0.01 0.79 0.04 91 1009.5
20260507023525 50 38 8.0 10.0 0.01 0.79 0.04 91 1009.6
20260507023004 50 48 8.0 10.0 0.01 0.79 0.04 91 1009.7
20260507022504 50 49 7.0 8.0 0.01 0.79 0.04 91 1009.7
20260507022004 50 40 8.0 11.0 0.01 0.79 0.04 91 1009.7
20260507021504 50 47 9.0 11.0 0.01 0.79 0.04 91 1009.9
20260507021025 50 60 8.0 10.0 0.01 0.79 0.04 91 1009.7
20260507020504 50 54 7.0 10.0 0.00 0.78 0.02 91 1009.9
20260507020004 50 40 7.0 10.0 0.00 0.78 0.02 91 1009.7
20260507015504 50 35 7.0 8.0 0.00 0.78 0.02 91 1009.9
20260507015004 50 32 6.0 8.0 0.00 0.78 0.02 91 1009.9
20260507014525 50 38 6.0 8.0 0.00 0.78 0.02 91 1010.0
20260507014004 50 48 6.0 8.0 0.00 0.78 0.02 91 1009.7
20260507013504 50 47 5.0 7.0 0.00 0.78 0.02 91 1009.5
20260507013004 50 36 4.0 6.0 0.01 0.78 0.02 91 1009.6
20260507012504 51 20 3.0 6.0 0.01 0.78 0.02 91 1009.6
20260507012025 51 12 3.0 7.0 0.01 0.78 0.02 91 1009.5
20260507011504 51 33 6.0 8.0 0.01 0.78 0.02 90 1009.7
20260507011004 50 31 6.0 8.0 0.01 0.79 0.02 90 1009.4
20260507010504 50 23 5.0 8.0 0.01 0.79 0.02 90 1009.4
20260507010004 51 16 4.0 6.0 0.01 0.79 0.02 90 1009.6
20260507005525 51 17 3.0 4.0 0.01 0.79 0.02 90 1009.6
20260507005004 51 15 3.0 5.0 0.01 0.79 0.02 90 1009.5
20260507004504 51 9 3.0 5.0 0.01 0.79 0.02 90 1009.6
20260507004004 51 12 3.0 5.0 0.01 0.79 0.02 90 1009.4
20260507003504 51 39 4.0 7.0 0.01 0.79 0.02 90 1009.5
20260507003004 51 49 6.0 11.0 0.00 0.78 0.01 90 1009.4
20260507002504 51 47 8.0 11.0 0.00 0.78 0.01 90 1009.3
20260507002025 51 35 9.0 11.0 0.00 0.78 0.01 90 1009.4
20260507001504 51 18 7.0 8.0 0.00 0.78 0.01 90 1009.6
20260507001025 51 2 5.0 8.0 0.00 0.78 0.01 90 1009.5
20260507000505 51 349 4.0 4.0 0.00 0.78 0.01 90 1009.5
20260507000004 51 14 5.0 8.0 0.00 0.78 0.01 90 1009.6
20260506235504 51 17 6.0 8.0 0.00 0.78 0.01 90 1009.5
20260506235004 51 17 5.0 8.0 0.00 0.78 0.01 90 1009.5
20260506234504 51 17 5.0 8.0 0.00 0.78 0.01 90 1009.6
20260506234004 51 25 5.0 6.0 0.00 0.78 0.01 90 1009.5
20260506233504 51 29 6.0 8.0 0.00 0.78 0.01 90 1009.4
20260506233004 51 17 7.0 9.0 0.00 0.78 0.01 90 1009.4
20260506232525 51 15 7.0 9.0 0.01 0.78 0.01 90 1009.4
20260506232004 51 25 8.0 11.0 0.01 0.78 0.01 90 1009.4
20260506231505 51 5 9.0 11.0 0.01 0.78 0.01 90 1009.5
20260506231003 51 12 7.0 11.0 0.01 0.78 0.01 90 1009.4
20260506230503 51 26 8.0 11.0 0.01 0.78 0.01 90 1009.6
20260506230004 51 28 8.0 11.0 0.01 0.78 0.01 90 1009.4
20260506225524 51 25 8.0 11.0 0.01 0.78 0.01 90 1009.3
20260506225003 51 20 8.0 10.0 0.01 0.78 0.01 90 1009.4
20260506224503 51 18 9.0 11.0 0.01 0.78 0.01 90 1009.4
20260506224003 51 21 9.0 11.0 0.02 0.78 0.01 90 1009.4
20260506223503 51 22 9.0 11.0 0.02 0.78 0.01 89 1009.4
20260506223003 51 9 8.0 11.0 0.02 0.78 0.01 89 1009.3
20260506222524 51 6 8.0 11.0 0.01 0.77 0.00 89 1009.3
20260506222003 51 13 7.0 11.0 0.01 0.77 0.00 89 1009.3
20260506221504 51 13 5.0 7.0 0.01 0.77 0.00 89 1009.3
20260506221024 51 16 4.0 7.0 0.01 0.77 0.00 89 1009.4
20260506220524 51 15 4.0 7.0 0.01 0.77 0.00 89 1009.4
20260506220004 51 24 6.0 8.0 0.02 0.77 0.00 89 1009.2
20260506215524 51 25 6.0 8.0 0.02 0.78 0.77 89 1009.2
20260506215004 51 20 5.0 7.0 0.02 0.78 0.77 89 1009.1
20260506214503 51 18 4.0 7.0 0.06 0.78 0.77 89 1009.3
20260506214003 51 6 5.0 6.0 0.06 0.78 0.76 89 1009.1
20260506213503 51 5 5.0 6.0 0.06 0.79 0.76 89 1009.1
20260506213003 51 13 6.0 8.0 0.06 0.80 0.76 89 1009.1
20260506212503 51 22 6.0 8.0 0.06 0.81 0.76 89 1009.1
20260506212003 51 24 6.0 8.0 0.06 0.83 0.76 89 1009.2
20260506211503 51 13 3.0 5.0 0.06 0.83 0.76 88 1009.2
20260506211003 51 356 2.0 4.0 0.06 0.83 0.76 88 1009.2
20260506210503 52 40 3.0 6.0 0.06 0.83 0.76 88 1009.3
20260506210003 51 39 5.0 7.0 0.05 0.81 0.74 88 1009.3
20260506205503 52 19 5.0 7.0 0.05 0.81 0.74 88 1009.0
20260506205003 52 9 4.0 5.0 0.05 0.81 0.74 88 1009.3
20260506204524 52 16 3.0 4.0 0.01 0.78 0.71 88 1009.1
20260506204024 52 48 2.0 4.0 0.00 0.77 0.70 88 1008.8
20260506203503 51 39 4.0 4.0 0.00 0.77 0.70 88 1008.7
20260506203003 51 18 4.0 4.0 0.00 0.77 0.70 88 1008.8
20260506202503 51 15 2.0 4.0 0.00 0.77 0.70 88 1008.8
20260506202003 51 7 2.0 4.0 0.00 0.77 0.70 87 1008.7
20260506201503 51 11 3.0 5.0 0.00 0.77 0.70 87 1008.6
20260506201024 51 20 5.0 5.0 0.00 0.77 0.70 87 1008.7
20260506200524 51 23 5.0 5.0 0.00 0.77 0.70 87 1008.7
20260506200004 51 43 5.0 6.0 0.00 0.77 0.70 87 1008.5
20260506195524 51 36 5.0 7.0 0.00 0.77 0.70 87 1008.5
20260506195024 51 15 5.0 7.0 0.00 0.77 0.70 87 1008.5
20260506194503 52 13 5.0 7.0 0.00 0.77 0.70 87 1008.5
20260506194003 52 26 5.0 7.0 0.00 0.77 0.70 87 1008.4
20260506193524 52 38 5.0 6.0 0.00 0.78 0.70 87 1008.4
20260506193003 52 32 4.0 6.0 0.00 0.79 0.70 87 1008.4
20260506192503 52 18 4.0 6.0 0.01 0.81 0.70 87 1008.3
20260506192024 51 11 4.0 4.0 0.01 0.83 0.70 87 1008.1
20260506191503 52 11 4.0 6.0 0.04 0.83 0.70 87 1008.0
20260506191003 52 17 4.0 6.0 0.06 0.84 0.70 87 1008.1
20260506190503 52 20 2.0 4.0 0.09 0.86 0.70 86 1007.9
20260506190003 52 351 2.0 6.0 0.09 0.86 0.70 86 1007.7
20260506185503 52 346 3.0 6.0 0.11 0.89 0.70 86 1007.7
20260506185003 52 58 3.0 8.0 0.12 0.89 0.70 86 1007.6
20260506184524 52 64 8.0 15.0 0.12 0.89 0.70 86 1007.6
20260506184003 53 78 12.0 16.0 0.13 0.89 0.70 86 1007.1
20260506183524 53 97 13.0 16.0 0.14 0.90 0.70 86 1006.8
20260506183004 53 98 14.0 18.0 0.15 0.90 0.70 86 1006.5
20260506182503 53 77 16.0 20.0 0.15 0.89 0.69 85 1006.5
20260506182024 53 73 15.0 20.0 0.15 0.90 0.69 85 1005.7
20260506181503 53 104 9.0 17.0 0.14 0.87 0.66 84 1006.4
20260506181003 53 106 5.0 8.0 0.12 0.85 0.64 84 1007.4
20260506180503 53 36 4.0 4.0 0.08 0.84 0.60 83 1007.7
20260506180004 53 359 4.0 8.0 0.08 0.84 0.60 83 1007.4
20260506175503 54 29 6.0 8.0 0.07 0.85 0.59 82 1007.4
20260506175003 54 60 4.0 7.0 0.06 0.84 0.58 82 1007.1
20260506174503 54 83 4.0 6.0 0.06 0.84 0.58 82 1006.8
20260506174003 54 90 3.0 6.0 0.05 0.83 0.57 81 1006.8
20260506173503 55 273 3.0 8.0 0.04 0.81 0.56 78 1006.7
20260506173003 55 146 8.0 12.0 0.02 0.81 0.54 78 1006.7
20260506172503 55 111 9.0 12.0 0.01 0.80 0.53 78 1006.3
20260506172003 55 70 7.0 12.0 0.01 0.81 0.53 77 1006.1
20260506171503 55 32 6.0 8.0 0.00 0.81 0.52 77 1006.3
20260506171003 55 11 5.0 8.0 0.00 0.83 0.52 77 1006.4
20260506170503 55 12 5.0 9.0 0.00 0.83 0.52 77 1006.3
20260506170003 56 18 6.0 10.0 0.00 0.83 0.52 77 1006.3
20260506165524 56 17 8.0 11.0 0.00 0.84 0.52 77 1006.0
20260506165003 56 19 9.0 11.0 0.00 0.85 0.52 78 1006.1
20260506164503 56 29 9.0 12.0 0.00 0.86 0.52 78 1006.0
20260506164003 56 24 9.0 12.0 0.00 0.89 0.52 79 1006.0
20260506163503 56 22 8.0 11.0 0.00 0.90 0.52 80 1005.8
20260506163003 56 18 9.0 11.0 0.00 0.91 0.52 80 1005.8
20260506162503 56 14 6.0 10.0 0.00 0.91 0.52 80 1005.7
20260506162003 56 23 5.0 8.0 0.00 0.91 0.52 80 1005.6
20260506161503 57 26 5.0 7.0 0.00 0.91 0.52 80 1005.8
20260506161003 57 18 5.0 8.0 0.00 0.91 0.52 80 1005.6
20260506160503 57 16 6.0 11.0 0.00 0.92 0.52 80 1005.4
20260506160003 57 22 8.0 11.0 0.00 0.92 0.52 80 1005.3
20260506155503 58 29 8.0 11.0 0.00 0.92 0.52 81 1005.3
20260506155024 58 25 8.0 13.0 0.00 0.92 0.52 81 1005.3
20260506154503 58 23 9.0 13.0 0.00 0.93 0.52 81 1005.4
20260506154003 58 29 10.0 14.0 0.00 0.93 0.52 82 1005.4
20260506153503 57 23 10.0 14.0 0.00 0.93 0.52 82 1005.6
20260506153003 57 17 11.0 14.0 0.00 0.93 0.52 83 1005.6
20260506152503 56 20 10.0 15.0 0.00 0.93 0.52 83 1005.5
20260506152003 56 17 9.0 15.0 0.00 0.93 0.52 84 1005.7
20260506151503 56 13 10.0 12.0 0.00 0.93 0.52 85 1005.8
20260506151003 56 23 11.0 12.0 0.00 0.93 0.52 85 1005.5
20260506150503 56 28 9.0 12.0 0.00 0.93 0.52 86 1005.9
20260506150003 55 34 9.0 11.0 0.00 0.93 0.52 86 1005.9
20260506145503 55 48 8.0 10.0 0.00 0.94 0.52 86 1006.1
20260506145024 55 53 9.0 11.0 0.00 0.94 0.52 87 1006.1
20260506144503 55 43 9.0 11.0 0.00 0.94 0.52 87 1006.2
20260506144003 55 40 9.0 11.0 0.00 0.96 0.52 88 1006.0
20260506143503 55 40 9.0 11.0 0.00 0.96 0.52 88 1006.0
20260506143024 55 38 8.0 11.0 0.00 0.97 0.52 88 1006.0
20260506142503 55 35 10.0 14.0 0.00 0.97 0.52 89 1005.9
20260506142024 55 41 11.0 14.0 0.00 0.97 0.52 89 1006.1
20260506141503 56 49 10.0 13.0 0.00 0.97 0.52 90 1006.1
20260506141003 56 42 9.0 11.0 0.04 0.97 0.52 90 1006.2
20260506140503 56 32 9.0 11.0 0.05 0.97 0.52 91 1006.1
20260506140003 56 19 8.0 11.0 0.09 0.98 0.52 91 1006.0
20260506135503 55 5 7.0 11.0 0.13 0.98 0.52 91 1006.0
20260506135024 55 356 7.0 9.0 0.21 0.98 0.52 91 1006.1
20260506134503 54 3 6.0 9.0 0.22 0.99 0.52 90 1006.0
20260506134003 54 20 6.0 7.0 0.25 0.99 0.52 92 1006.2
20260506133503 53 22 5.0 7.0 0.25 0.99 0.52 92 1006.1
20260506133003 53 10 4.0 6.0 0.25 1.00 0.52 92 1006.1
20260506132503 52 335 5.0 7.0 0.25 1.00 0.52 91 1006.5
20260506132003 51 345 5.0 8.0 0.25 1.00 0.52 91 1006.3
20260506131503 51 24 6.0 8.0 0.25 1.02 0.52 90 1006.4
20260506131003 51 31 6.0 8.0 0.21 0.98 0.48 90 1006.6
20260506130503 51 8 6.0 11.0 0.20 0.97 0.47 90 1006.5
20260506130003 51 333 7.0 11.0 0.15 0.92 0.43 89 1006.5
20260506125503 52 342 8.0 11.0 0.12 0.90 0.39 89 1006.2
20260506125024 52 357 7.0 9.0 0.04 0.81 0.32 89 1006.4
20260506124503 53 2 6.0 11.0 0.02 0.80 0.30 89 1006.4
20260506124003 54 351 9.0 14.0 0.00 0.78 0.27 89 1006.6
20260506123503 55 346 10.0 14.0 0.00 0.78 0.27 86 1006.4
20260506123003 57 5 8.0 10.0 0.00 0.79 0.27 88 1006.4
20260506122524 58 27 7.0 13.0 0.00 0.79 0.27 90 1006.3
20260506122024 59 138 7.0 13.0 0.00 0.79 0.27 91 1006.3
20260506121503 59 140 7.0 12.0 0.00 0.79 0.27 91 1006.0
20260506121024 59 205 9.0 12.0 0.00 0.79 0.27 91 1005.7
20260506120503 59 221 8.0 11.0 0.00 0.80 0.27 92 1005.7
20260506120003 59 191 9.0 11.0 0.00 0.80 0.27 92 1005.6
20260506115503 59 167 10.0 15.0 0.00 0.80 0.27 93 1005.5
20260506115003 59 127 10.0 15.0 0.00 0.80 0.27 93 1005.6
20260506114504 59 149 10.0 13.0 0.00 0.80 0.27 93 1005.5
20260506114005 58 164 11.0 14.0 0.00 0.81 0.27 93 1005.8
20260506113505 58 163 14.0 19.0 0.00 0.81 0.27 93 1005.8
20260506113005 58 157 13.0 19.0 0.00 0.81 0.27 94 1005.6
20260506112504 58 149 11.0 17.0 0.00 0.81 0.27 94 1005.6
20260506112004 58 172 9.0 12.0 0.00 0.83 0.27 94 1005.8
20260506111505 57 188 10.0 13.0 0.00 0.83 0.27 94 1005.9
20260506111004 57 153 11.0 13.0 0.00 0.83 0.27 94 1005.9
20260506110505 56 147 13.0 17.0 0.00 0.83 0.27 94 1006.0
20260506110005 56 147 14.0 19.0 0.00 0.84 0.27 94 1005.7
20260506105505 56 139 16.0 20.0 0.01 0.84 0.27 94 1005.9
20260506105005 56 136 17.0 20.0 0.01 0.84 0.27 94 1006.0
20260506104504 56 122 15.0 19.0 0.01 0.85 0.27 94 1005.8
20260506104025 56 118 13.0 17.0 0.01 0.85 0.27 94 1006.0
20260506103505 56 137 13.0 17.0 0.01 0.85 0.27 94 1006.1
20260506103005 56 134 12.0 18.0 0.01 0.85 0.27 94 1006.1
20260506102505 56 133 13.0 18.0 0.01 0.86 0.27 95 1006.1
20260506102004 56 145 13.0 19.0 0.01 0.86 0.27 95 1006.1
20260506101505 56 138 14.0 19.0 0.01 0.86 0.27 95 1006.2
20260506101004 56 136 14.0 17.0 0.01 0.86 0.27 95 1006.1
20260506100504 56 130 16.0 26.0 0.01 0.87 0.27 95 1006.0
20260506100005 55 128 16.0 26.0 0.01 0.87 0.27 95 1006.0
20260506095505 55 149 13.0 16.0 0.00 0.87 0.26 95 1006.0
20260506095005 55 154 14.0 17.0 0.00 0.87 0.26 95 1006.0
20260506094504 55 136 16.0 21.0 0.00 0.89 0.26 96 1005.9
20260506094005 55 136 13.0 21.0 0.00 0.90 0.26 96 1005.9
20260506093505 55 132 14.0 19.0 0.00 0.90 0.26 96 1006.0
20260506093005 55 134 17.0 21.0 0.00 0.90 0.26 96 1006.0
20260506092505 55 147 16.0 21.0 0.00 0.90 0.26 96 1006.0
20260506092005 55 147 14.0 18.0 0.00 0.91 0.26 96 1005.9
20260506091505 55 140 15.0 19.0 0.00 0.91 0.26 96 1006.0
20260506091005 55 96 17.0 19.0 0.00 0.91 0.26 96 1005.8
20260506090505 55 92 17.0 19.0 0.00 0.92 0.26 96 1005.8
20260506090004 55 124 16.0 20.0 0.00 0.92 0.26 96 1005.7
20260506085505 55 116 17.0 21.0 0.00 0.92 0.26 97 1005.7
20260506085005 55 132 18.0 21.0 0.00 0.92 0.26 97 1005.7
20260506084504 55 154 19.0 23.0 0.00 0.92 0.26 97 1005.7
20260506084005 55 147 17.0 23.0 0.00 0.92 0.26 97 1005.9
20260506083505 55 125 12.0 17.0 0.00 0.92 0.26 97 1005.9
20260506083005 55 131 12.0 18.0 0.00 0.92 0.26 97 1006.0
20260506082504 55 137 16.0 20.0 0.00 0.92 0.26 97 1006.1
20260506082005 55 134 15.0 20.0 0.00 0.92 0.26 97 1006.1
20260506081526 55 132 16.0 23.0 0.00 0.92 0.26 97 1006.1
20260506081005 55 132 17.0 23.0 0.01 0.92 0.26 97 1006.0
20260506080504 55 145 16.0 19.0 0.01 0.93 0.26 97 1006.0
20260506073504 55 153 14.0 18.0 0.01 0.93 0.26 97 1006.0
20260506073005 55 143 15.0 17.0 0.01 0.93 0.26 97 1006.1
20260506072525 55 134 15.0 18.0 0.01 0.93 0.26 97 1005.9
20260506072026 55 132 14.0 21.0 0.01 0.93 0.26 97 1006.0
20260506071504 54 153 12.0 21.0 0.01 0.93 0.26 100 1006.1
20260506071004 54 151 9.0 15.0 0.00 0.93 0.25 100 1006.0
20260506070504 54 129 10.0 12.0 0.00 0.93 0.25 100 1006.2